Location: Aciu?a
(46.2833°N, 22.4500°E)
Time: 13:29:44
(UTC+00:00)

BREEZE-M R/B - Pass Details

Date: 25 October 2021
Orbit: 597 x 26569 km, 48.9° (Epoch: 06 December)

Event Time Altitude Azimuth Distance (km) Brightness Sun altitude
Rises 17:16:10 0° 289° (WNW) 3,001 7.5 -19.6°
Reaches altitude 10° 17:18:11 10° 288° (WNW) 1,944 6.2 -19.9°
Maximum altitude 17:21:39 84° 202° (SSW) 682 2.7 -20.5°
Enters shadow 17:23:06 42° 117° (ESE) 1,091 3.3 -20.8°
